STARLINK-11188, 60722

Orbit data source: Space-Track

STARLINK-11188, 60722 is a payload satellite owned by SpaceX/Seattle (US) in LEO that was launched on Wed, 28 Aug 2024 UTC via an FALCON 9 launch vehicle from the Air Force Eastern Test Range (AFETR). Payload-class satellites include a variety of spacecraft equipped with specific instruments for various scientific and technological missions. These include communications satellites like Starlink; space stations such as the ISS; scientific satellites like the Hubble; Earth observation satellites from companies like Planet Labs, Umbra, and HawkEye 360; GPS; miniature CubeSats for education and research; and military/defense satellites.

Loading next visibility...
Identifier
60722, 2024-152C
Orbit
LEO
Last TLE update
18 hours ago
Origin
Manufacturer
SpaceX/Seattle
Mission
Operational Commercial Communications
Bus & Motor
STARLINK V2M, Unknown motor
Mass
730 kg wet, ~700 kg dry
Launch date (UTC)
2024-08-28 (10 months ago)
Launch vehicle
FALCON 9
Launch site
Air Force Eastern Test Range (AFETR)
Object type
Payload
Rocket body
Debris
Shape & HBR
Box + 2 Pan, 29 m
Radar Cross Section
36.964 m², Large (>1 m²)

Expand to show TLE details & history

TLE from 18 hours ago
0 STARLINK-11188
1 60722U 24152C   25183.54140921  .00000065  00000-0  53883-5 0  9999
2 60722  53.1592 269.6040 0001047 126.4759 233.6355 15.69721242 49668
Epoch: 2025-07-02T12:59Z
TLE epoch observation values (Epoch: 2025-07-02T12:59:37.755Z)
Latitude
-0.00007°
Longitude
153.8756°
Altitude
361.028 km
Speed
7.694 km/s
True Right ascension
17h 58m 24s
True Declination
0° 00' 00"
Sunlit
Object was in full shadow at epoch
Visualization orbit readout
Latitude
-40.69555°
Longitude
110.31073°
Altitude
373.844 km
Speed
7.685 km/s
Apparent Right ascension
11h 07m 33s
Apparent Declination
-60° 30' 25"
Sunlit
Object is in full shadow
Visualization observer readout
Local Sidereal Time
18:51:46
Azimuth
219.907° SW
Elevation
-46.416°
Doppler factor
1
Orbital elements
Apogee altitude
360.661 km
Perigee altitude
359.25 km
Semi-major axis
6,738.092 km
Eccentricity
0.0001
Inclination
53.1592°
RAAN
269.604°
Arg. of periapsis
126.4759°
True anomaly
Unknown
Mean anomaly
233.6355°
Eccentric anomaly
Unknown
Mean motion
3.92408 °/min
Orbital period
91.74 mins
BSTAR
0.0000053883
Loading maneuver chart data...
Loading SW <> Apogee altitude chart data...
Loading historical data...
Loading historical data...
Loading historical data...
Loading historical data...
Loading historical data...
Loading historical data...
Loading historical data...

STARLINK-11188 Visibility forecast

Observer location: undefined°, undefined°

Span
Click to sort rows by Start time (UTC) header in descending order
Start Az.
Max El. time (UTC)
Max El. Az.
Max El.
End time (UTC)
End Az.
4 mins2025-07-03 09:04:59.158Z271.722° WNW2025-07-03 09:05:59.158Z302.851° NW28.939°2025-07-03 09:08:59.158Z33.711° NE
|